Location: Vesunti
(61.5000°N, 22.8333°E)
Time: 15:18:54
(UTC+00:00)

Cosmos 2237 Rocket - Pass Details

Date: 17 February 2020
Orbit: 835 x 849 km, 71.0° (Epoch: 07 April)

Event Time Altitude Azimuth Distance (km) Brightness Sun altitude
Exits shadow 02:21:38 40° 160° (SSE) 1,220 2.9 -27.1°
Maximum altitude 02:23:04 49° 119° (ESE) 1,069 2.8 -26.9°
Drops below altitude 10° 02:28:28 10° 46° (NE) 2,461 5.5 -26.3°
Sets 02:30:59 0° 41° (NE) 3,399 6.4 -26.1°
